Location: Lafig�re
(44.4503°N, 4.0357°E)
Time: 09:12:10
(UTC+00:00)

Tiros 1 - Pass Details

Date: 24 January 2021
Orbit: 630 x 664 km, 48.4° (Epoch: 07 March)

Event Time Altitude Azimuth Distance (km) Brightness Sun altitude
Rises 17:52:39 0° 238° (WSW) 2,926 12.1 -12.6°
Reaches altitude 10° 17:54:59 10° 236° (SW) 2,015 10.9 -13.0°
Maximum altitude 17:59:36 71° 152° (SSE) 670 7.1 -13.8°
Enters shadow 18:02:25 23° 73° (ENE) 1,342 8.1 -14.3°
